Location: Spring Creek
(38.2870°N, 100.2160°W)
Time: 13:39:20
(UTC+00:00)

Cosmos 2297 Rocket - Pass Details

Date: 29 September 2021
Orbit: 841 x 842 km, 71.0° (Epoch: 27 October)

Event Time Altitude Azimuth Distance (km) Brightness Sun altitude
Rises 04:37:15 0° 329° (NNW) 3,402 6.1 -45.7°
Reaches altitude 10° 04:39:49 10° 322° (NW) 2,463 5.2 -46.1°
Enters shadow 04:40:12 12° 321° (NW) 2,330 5.0 -46.1°
